This is the latest recevied weather packets stored in our database for station/object KG7KID-5. If no packets are shown the sender has not sent any weather packets the latest 10 day(s).
| Time | Temp. | Humidity | Pressure | Rain* | Wind** | Luminosity | Snow |
|---|---|---|---|---|---|---|---|
| 1778216575 | 23.89° C | 12% | 929.3 hPa | 0 mm | - | - | - |
| 1778216537 | 23.89° C | 12% | 929.3 hPa | 0 mm | - | - | - |
| 1778215937 | 23.89° C | 12% | 929.1 hPa | 0 mm | - | - | - |
| 1778215684 | 23.89° C | 11% | 929.1 hPa | 0 mm | - | - | - |
| 1778215637 | 23.89° C | 11% | 929.1 hPa | 0 mm | - | - | - |
| 1778213237 | 24.44° C | 13% | 928.6 hPa | 0 mm | - | - | - |
| 1778212671 | 23.89° C | 14% | 928.3 hPa | 0 mm | - | - | - |
| 1778212637 | 23.89° C | 14% | 928.3 hPa | 0 mm | - | - | - |
| 1778211737 | 23.89° C | 13% | 928.1 hPa | 0 mm | - | - | - |
| 1778210876 | 25° C | 12% | 927.7 hPa | 0 mm | - | - | - |
| 1778210837 | 25° C | 12% | 927.7 hPa | 0 mm | - | - | - |
| 1778209937 | 25° C | 13% | 927.5 hPa | 0 mm | - | - | - |
| 1778209045 | 26.11° C | 11% | 927.1 hPa | 0 mm | - | - | - |
| 1778208996 | 26.11° C | 11% | 927.1 hPa | 0 mm | - | - | - |
| 1778207530 | 26.67° C | 12% | 926.6 hPa | 0 mm | - | - | - |
| 1778207496 | 26.67° C | 12% | 926.6 hPa | 0 mm | - | - | - |
| 1778207196 | 26.67° C | 11% | 926.5 hPa | 0 mm | - | - | - |
| 1778206942 | 27.22° C | 12% | 926.5 hPa | 0 mm | - | - | - |
| 1778206896 | 27.22° C | 12% | 926.5 hPa | 0 mm | - | - | - |
| 1778206630 | 27.78° C | 9% | 926.4 hPa | 0 mm | - | - | - |
| 1778206596 | 27.78° C | 9% | 926.4 hPa | 0 mm | - | - | - |
| 1778205709 | 28.89° C | 11% | 926.2 hPa | 0 mm | - | - | - |
| 1778205663 | 28.89° C | 11% | 926.2 hPa | 0 mm | - | - | - |
| 1778204553 | 30.56° C | 9% | 926 hPa | 0 mm | - | - | - |
| 1778202153 | 31.11° C | 9% | 925.9 hPa | 0 mm | - | - | - |
* Rain latest hour (hover to see other rain measurements)
** Current wind speed in m/s (hover to see current wind gust speed)